New Rooks County (RCP)
Stockton, KS
Field Elevation: 1999
Lat: 39°20.80N  Long: 99°18.28W
CTAF/Unicom Freq: 122.9000
   
    
Weather Advisories
9/3/2014 04:31 Z
Altimeter 29.91" Hg
Wind 150° @ 6 KT
Gusts --
Visibility 10 SM
Temperature 23° C (73° F)
Dewpoint 19° C (66° F)
Relative Humidity 83%
Density Altitude 3,300 feet
Condensation Altitude 3,700 feet
  Wind and Runways
Indicated Runway = 18
History
 
 
More Info
All DigiWx sites map
NOAA Forecast
 
Airport IQ 5010
(FLV) Sherman Airfield
(K68) Garnett Municipal Airport
 
about DigiWx
 
FAA Disclaimer: The data displayed is for advisory purposes only and is not to be used for flight planning or operations. For official data, please call (not available) to hear the current automated AWOS voice message.
  METAR RCP 030431Z AUTO 15006KT 10SM 23/19 A2991